TimeMDT,TemperatureF,Dew PointF,Humidity,Sea Level PressureIn,VisibilityMPH,Wind Direction,Wind SpeedMPH,Gust SpeedMPH,PrecipitationIn,Events,Conditions,WindDirDegrees,DateUTC
12:15 AM,66.2,50.9,58,30.49,10.0,NE,3.5,-,N/A,,Overcast,50,2013-08-26 06:15:00
12:35 AM,66.2,50.9,58,30.49,10.0,WSW,3.5,-,N/A,,Scattered Clouds,240,2013-08-26 06:35:00
12:55 AM,65.7,49.8,57,30.49,10.0,SSW,8.1,-,N/A,,Scattered Clouds,210,2013-08-26 06:55:00
1:15 AM,64.9,50.7,60,30.49,10.0,SSW,5.8,-,N/A,,Scattered Clouds,200,2013-08-26 07:15:00
1:35 AM,63.9,50.9,63,30.49,10.0,WSW,3.5,-,N/A,,Mostly Cloudy,240,2013-08-26 07:35:00
1:55 AM,65.1,50.7,60,30.49,10.0,SSW,11.5,19.6,N/A,,Scattered Clouds,210,2013-08-26 07:55:00
2:15 AM,64.4,52.2,64,30.49,10.0,SW,9.2,-,N/A,,Scattered Clouds,220,2013-08-26 08:15:00
2:35 AM,64.6,52.0,64,30.49,10.0,SSW,4.6,-,N/A,,Mostly Cloudy,200,2013-08-26 08:35:00
2:55 AM,65.1,50.9,60,30.49,10.0,South,10.4,-,N/A,,Overcast,190,2013-08-26 08:55:00
3:15 AM,64.6,51.3,62,30.48,10.0,SSW,5.8,-,N/A,,Scattered Clouds,210,2013-08-26 09:15:00
3:35 AM,65.1,50.5,59,30.48,10.0,SW,11.5,16.1,N/A,,Clear,230,2013-08-26 09:35:00
3:55 AM,65.3,50.9,60,30.48,10.0,SW,12.7,20.7,N/A,,Scattered Clouds,220,2013-08-26 09:55:00
4:15 AM,65.1,50.5,59,30.47,10.0,SW,15.0,19.6,N/A,,Scattered Clouds,230,2013-08-26 10:15:00
4:35 AM,65.5,50.2,58,30.48,10.0,SW,12.7,18.4,N/A,,Clear,220,2013-08-26 10:35:00
4:55 AM,65.3,50.9,60,30.49,10.0,SSW,6.9,18.4,N/A,,Clear,210,2013-08-26 10:55:00
5:15 AM,64.4,51.1,62,30.49,10.0,SW,3.5,-,N/A,,Scattered Clouds,230,2013-08-26 11:15:00
5:35 AM,63.3,50.9,64,30.49,10.0,West,8.1,-,N/A,,Clear,280,2013-08-26 11:35:00
5:55 AM,63.3,51.1,64,30.49,10.0,West,5.8,-,N/A,,Clear,280,2013-08-26 11:55:00
6:15 AM,63.5,50.9,63,30.49,10.0,West,4.6,-,N/A,,Clear,280,2013-08-26 12:15:00
6:35 AM,64.0,50.9,62,30.50,10.0,Calm,Calm,-,N/A,,Scattered Clouds,0,2013-08-26 12:35:00
6:55 AM,64.0,51.1,63,30.50,10.0,NW,6.9,-,N/A,,Scattered Clouds,310,2013-08-26 12:55:00
7:15 AM,65.5,51.1,60,30.50,10.0,WSW,4.6,-,N/A,,Clear,250,2013-08-26 13:15:00
7:35 AM,66.0,51.6,60,30.50,10.0,West,6.9,-,N/A,,Clear,270,2013-08-26 13:35:00
7:55 AM,68.2,50.7,54,30.50,10.0,SSW,8.1,-,N/A,,Clear,210,2013-08-26 13:55:00
8:15 AM,68.9,50.2,51,30.49,10.0,West,6.9,-,N/A,,Clear,270,2013-08-26 14:15:00
8:55 AM,71.6,48.4,44,30.49,10.0,SW,6.9,-,N/A,,Clear,220,2013-08-26 14:55:00
9:15 AM,73.0,48.2,41,30.49,10.0,SSW,8.1,17.3,N/A,,Clear,210,2013-08-26 15:15:00
9:35 AM,73.4,47.8,40,30.48,10.0,South,6.9,-,N/A,,Clear,190,2013-08-26 15:35:00
9:55 AM,75.2,47.8,38,30.48,10.0,South,10.4,17.3,N/A,,Clear,190,2013-08-26 15:55:00
10:15 AM,76.1,47.7,37,30.48,10.0,South,11.5,16.1,N/A,,Clear,170,2013-08-26 16:15:00
10:35 AM,76.6,47.7,36,30.48,10.0,SW,13.8,21.9,N/A,,Clear,230,2013-08-26 16:35:00
10:55 AM,77.9,47.7,34,30.48,10.0,SW,12.7,17.3,N/A,,Clear,230,2013-08-26 16:55:00
11:15 AM,77.9,47.7,34,30.47,10.0,South,10.4,19.6,N/A,,Clear,190,2013-08-26 17:15:00
11:35 AM,79.5,46.8,31,30.46,10.0,South,15.0,20.7,N/A,,Clear,170,2013-08-26 17:35:00
11:55 AM,80.1,46.8,31,30.45,10.0,SSW,10.4,21.9,N/A,,Clear,210,2013-08-26 17:55:00
12:15 PM,81.5,46.6,29,30.45,10.0,SW,12.7,20.7,N/A,,Clear,230,2013-08-26 18:15:00
12:35 PM,81.3,46.6,29,30.44,10.0,South,16.1,25.3,N/A,,Clear,190,2013-08-26 18:35:00
12:55 PM,81.1,46.8,30,30.44,10.0,South,15.0,23.0,N/A,,Clear,180,2013-08-26 18:55:00
1:15 PM,82.9,46.6,28,30.43,10.0,SSW,11.5,20.7,N/A,,Clear,210,2013-08-26 19:15:00
1:35 PM,82.4,46.2,28,30.43,10.0,South,11.5,20.7,N/A,,Clear,190,2013-08-26 19:35:00
1:55 PM,82.6,46.8,28,30.42,10.0,South,11.5,21.9,N/A,,Clear,180,2013-08-26 19:55:00
2:15 PM,84.0,46.0,26,30.42,10.0,South,11.5,19.6,N/A,,Clear,190,2013-08-26 20:15:00
2:35 PM,83.7,46.9,28,30.42,10.0,South,16.1,21.9,N/A,,Scattered Clouds,180,2013-08-26 20:35:00
2:55 PM,80.1,47.7,32,30.42,10.0,SW,18.4,24.2,N/A,,Mostly Cloudy,220,2013-08-26 20:55:00
3:15 PM,77.9,48.9,36,30.41,10.0,South,13.8,20.7,N/A,,Overcast,190,2013-08-26 21:15:00
3:35 PM,77.7,48.4,36,30.41,10.0,South,13.8,20.7,N/A,,Overcast,180,2013-08-26 21:35:00
3:55 PM,80.6,46.9,31,30.40,10.0,South,13.8,21.9,N/A,,Overcast,180,2013-08-26 21:55:00
4:15 PM,79.9,47.1,32,30.40,10.0,SSW,11.5,18.4,N/A,,Mostly Cloudy,200,2013-08-26 22:15:00
4:35 PM,78.8,48.9,35,30.39,10.0,SSW,10.4,18.4,N/A,,Scattered Clouds,210,2013-08-26 22:35:00
4:55 PM,79.7,46.4,31,30.39,10.0,South,11.5,18.4,N/A,,Mostly Cloudy,190,2013-08-26 22:55:00
5:15 PM,82.6,47.5,29,30.38,10.0,South,10.4,16.1,N/A,,Mostly Cloudy,190,2013-08-26 23:15:00
5:35 PM,82.6,45.9,28,30.38,10.0,SSW,10.4,-,N/A,,Scattered Clouds,200,2013-08-26 23:35:00
5:55 PM,78.8,47.8,34,30.38,10.0,WSW,8.1,-,N/A,,Scattered Clouds,240,2013-08-26 23:55:00
6:15 PM,77.9,48.7,36,30.37,10.0,WSW,10.4,-,N/A,,Scattered Clouds,250,2013-08-27 00:15:00
6:35 PM,77.0,48.2,36,30.37,10.0,WSW,6.9,-,N/A,,Mostly Cloudy,250,2013-08-27 00:35:00
6:55 PM,76.5,48.0,37,30.37,10.0,West,11.5,-,N/A,,Mostly Cloudy,280,2013-08-27 00:55:00
7:15 PM,76.1,48.0,37,30.37,10.0,WNW,8.1,-,N/A,,Mostly Cloudy,290,2013-08-27 01:15:00
7:35 PM,75.2,48.4,39,30.38,10.0,West,3.5,-,N/A,,Mostly Cloudy,270,2013-08-27 01:35:00
7:55 PM,74.5,49.1,41,30.38,10.0,WNW,6.9,-,N/A,,Scattered Clouds,290,2013-08-27 01:55:00
8:15 PM,74.1,48.4,40,30.39,10.0,WNW,12.7,-,N/A,,Scattered Clouds,300,2013-08-27 02:15:00
8:35 PM,73.4,47.3,39,30.40,10.0,NW,9.2,-,N/A,,Scattered Clouds,320,2013-08-27 02:35:00
8:55 PM,72.0,47.5,42,30.41,10.0,NW,9.2,-,N/A,,Mostly Cloudy,320,2013-08-27 02:55:00
9:15 PM,71.1,47.8,44,30.42,10.0,NW,9.2,-,N/A,,Mostly Cloudy,320,2013-08-27 03:15:00
9:35 PM,70.0,49.1,47,30.42,10.0,NW,11.5,-,N/A,,Mostly Cloudy,310,2013-08-27 03:35:00
9:55 PM,68.9,48.9,49,30.43,10.0,NW,8.1,-,N/A,,Mostly Cloudy,320,2013-08-27 03:55:00
10:15 PM,68.5,48.9,49,30.43,10.0,WNW,10.4,16.1,N/A,,Mostly Cloudy,300,2013-08-27 04:15:00
10:35 PM,67.5,49.3,52,30.44,10.0,WNW,9.2,-,N/A,,Scattered Clouds,290,2013-08-27 04:35:00
10:55 PM,65.8,49.5,55,30.45,10.0,NW,4.6,-,N/A,,Scattered Clouds,320,2013-08-27 04:55:00
11:15 PM,64.8,49.6,58,30.45,10.0,WSW,4.6,-,N/A,,Clear,240,2013-08-27 05:15:00
11:35 PM,62.6,49.6,63,30.45,10.0,WSW,6.9,-,N/A,,Clear,240,2013-08-27 05:35:00
11:55 PM,63.0,49.1,61,30.45,10.0,WSW,6.9,-,N/A,,Clear,250,2013-08-27 05:55:00